Showing default

HAWK-7B, 56193

Orbit data source: Space-Track

HAWK-7B, 56193 is a payload satellite owned by HawkEye 360 (US) in SSO that was launched on Sat, 15 Apr 2023 UTC via an FALCON 9 launch vehicle from the Air Force Western Test Range (AFWTR). Payload-class satellites include a variety of spacecraft equipped with specific instruments for various scientific and technological missions. These include communications satellites like Starlink; space stations such as the ISS; scientific satellites like the Hubble; Earth observation satellites from companies like Planet Labs, Umbra, and HawkEye 360; GPS; miniature CubeSats for education and research; and military/defense satellites.

Loading next visibility...
Identifier
56193, 2023-054R
Orbit
SSO
Country
Flag of USUS
Related business
Manufacturer
UTIAS-SFL
Mission
Operational Commercial Sigint
Bus & Motor
HAWK2G, Unknown motor
Mass
31 kg wet, 30 kg dry
Launch date (UTC)
2023-04-15 (3 years ago)
Launch vehicle
FALCON 9
Launch site
Air Force Western Test Range (AFWTR)
Object type
Payload
Rocket body
Debris
Shape & HBR
Box + 2 Pan, 1.0 m
Radar Cross Section
0.240 m², Medium (>0.1 m² and < 1m²)

Expand to show TLE details & history
Last TLE update: 15 hours ago

TLE from 15 hours ago
0 HAWK-7B
1 56193U 23054R   26132.98977167  .00003757  00000-0  14460-3 0  9996
2 56193  97.2776  19.4750 0003075 134.3790 225.7701 15.26975144171650
Epoch: 2026-05-12T23:45Z
TLE epoch observation values (Epoch: 2026-05-12T23:45:16.272Z)
Latitude
-0.00007°
Longitude
152.40098°
Altitude
489.437 km
Speed
7.619 km/s
True Right ascension
01h 17m 54s
True Declination
0° 00' 00"
Sunlit
Object was in daylight at epoch
Visualization orbit readout
Latitude
Unknown
Longitude
Unknown
Altitude
Unknown
Speed
Unknown
Apparent Right ascension
Unknown
Apparent Declination
Unknown
Sunlit
N/A
Visualization observer readout
Local Sidereal Time
23:19:28
Azimuth
Unknown
Elevation
Unknown
Doppler factor
Unknown
Orbital elements
Apogee altitude
483.921 km
Perigee altitude
479.702 km
Semi-major axis
6,859.949 km
Eccentricity
0.00031
Inclination
97.2776°
RAAN
19.475°
Arg. of periapsis
134.379°
True anomaly
225.74486°
Mean anomaly
225.7701°
Eccentric anomaly
225.75748°
Mean motion
3.81999 °/min
Orbital period
94.24 mins
BSTAR
0.0001446
Loading maneuver chart data...
Computing Atmospheric mass density...
Loading historical data...
Loading historical data...
Loading historical data...
Loading historical data...
Loading historical data...
Loading historical data...
Loading historical data...

Documentation

Showing up to 5 results
|